Time,TemperatureF,DewpointF,PressureIn,WindDirection,WindDirectionDegrees,WindSpeedMPH,WindSpeedGustMPH,Humidity,HourlyPrecipIn,Conditions,Clouds,dailyrainin,SoftwareType,DateUTC
2013-02-14 00:01:00,38.3,34.2,30.14,North,0,0.0,0.0,85,0.00,,,0.00,WUHU21623XXSP,2013-02-14 08:01:00,
2013-02-14 00:11:00,38.1,34.3,30.14,North,0,0.0,0.0,86,0.00,,,0.00,WUHU21623XXSP,2013-02-14 08:11:00,
2013-02-14 00:21:00,37.9,34.1,30.14,North,0,0.0,0.0,86,0.00,,,0.00,WUHU21623XXSP,2013-02-14 08:21:00,
2013-02-14 00:31:00,37.9,34.1,30.14,North,0,0.0,0.0,86,0.00,,,0.00,WUHU21623XXSP,2013-02-14 08:31:00,
2013-02-14 00:41:00,37.9,34.1,30.14,North,0,0.0,0.0,86,0.00,,,0.00,WUHU21623XXSP,2013-02-14 08:41:00,
2013-02-14 00:51:00,37.6,33.8,30.14,North,0,0.0,0.0,86,0.00,,,0.00,WUHU21623XXSP,2013-02-14 08:51:00,
2013-02-14 01:01:00,37.6,33.8,30.14,North,0,0.0,0.0,86,0.00,,,0.00,WUHU21623XXSP,2013-02-14 09:01:00,
2013-02-14 01:11:00,37.6,33.8,30.14,North,0,0.0,0.0,86,0.00,,,0.00,WUHU21623XXSP,2013-02-14 09:11:00,
2013-02-14 01:21:00,37.4,33.6,30.14,North,0,0.0,0.0,86,0.00,,,0.00,WUHU21623XXSP,2013-02-14 09:21:00,
2013-02-14 01:31:00,37.2,33.4,30.14,North,0,0.0,0.0,86,0.00,,,0.00,WUHU21623XXSP,2013-02-14 09:31:00,
2013-02-14 01:41:00,37.0,33.2,30.13,North,0,0.0,0.0,86,0.00,,,0.00,WUHU21623XXSP,2013-02-14 09:41:00,
2013-02-14 01:51:00,36.9,33.1,30.13,North,0,0.0,0.0,86,0.00,,,0.00,WUHU21623XXSP,2013-02-14 09:51:00,
2013-02-14 02:01:00,36.7,32.9,30.14,North,0,0.0,0.0,86,0.00,,,0.00,WUHU21623XXSP,2013-02-14 10:01:00,
2013-02-14 02:11:00,36.7,32.9,30.13,North,0,0.0,0.0,86,0.00,,,0.00,WUHU21623XXSP,2013-02-14 10:11:00,
2013-02-14 02:21:00,36.7,32.9,30.14,North,0,0.0,0.0,86,0.00,,,0.00,WUHU21623XXSP,2013-02-14 10:21:00,
2013-02-14 02:31:00,36.7,32.9,30.14,North,0,0.0,0.0,86,0.00,,,0.00,WUHU21623XXSP,2013-02-14 10:31:00,
2013-02-14 02:41:00,36.5,32.7,30.14,North,0,0.0,0.0,86,0.00,,,0.00,WUHU21623XXSP,2013-02-14 10:41:00,
2013-02-14 02:51:00,36.7,33.2,30.14,North,0,0.0,0.0,87,0.00,,,0.00,WUHU21623XXSP,2013-02-14 10:51:00,
2013-02-14 03:01:00,36.7,33.2,30.13,North,0,0.0,0.0,87,0.00,,,0.00,WUHU21623XXSP,2013-02-14 11:01:00,
2013-02-14 03:11:00,36.7,32.9,30.13,North,0,0.0,0.0,86,0.00,,,0.00,WUHU21623XXSP,2013-02-14 11:11:00,
2013-02-14 03:21:00,36.5,33.0,30.12,North,0,0.0,0.0,87,0.00,,,0.00,WUHU21623XXSP,2013-02-14 11:21:00,
2013-02-14 03:31:00,36.7,33.2,30.12,North,0,0.0,0.0,87,0.00,,,0.00,WUHU21623XXSP,2013-02-14 11:31:00,
2013-02-14 03:41:00,37.0,33.5,30.12,North,0,0.0,0.0,87,0.00,,,0.00,WUHU21623XXSP,2013-02-14 11:41:00,
2013-02-14 03:51:00,37.2,33.7,30.12,North,0,0.0,0.0,87,0.00,,,0.00,WUHU21623XXSP,2013-02-14 11:51:00,
2013-02-14 04:01:00,37.4,33.9,30.12,North,0,0.0,0.0,87,0.00,,,0.00,WUHU21623XXSP,2013-02-14 12:01:00,
2013-02-14 04:11:00,37.9,34.3,30.12,North,0,0.0,0.0,87,0.00,,,0.00,WUHU21623XXSP,2013-02-14 12:11:00,
2013-02-14 04:21:00,37.9,34.3,30.11,North,0,0.0,0.0,87,0.00,,,0.00,WUHU21623XXSP,2013-02-14 12:21:00,
2013-02-14 04:31:00,37.9,34.1,30.11,North,0,0.0,0.0,86,0.00,,,0.00,WUHU21623XXSP,2013-02-14 12:31:00,
2013-02-14 04:41:00,37.8,34.0,30.11,North,0,0.0,0.0,86,0.00,,,0.00,WUHU21623XXSP,2013-02-14 12:41:00,
2013-02-14 04:51:00,38.1,34.3,30.12,North,0,0.0,0.0,86,0.00,,,0.00,WUHU21623XXSP,2013-02-14 12:51:00,
2013-02-14 05:01:00,38.5,34.7,30.12,North,0,0.0,0.0,86,0.00,,,0.00,WUHU21623XXSP,2013-02-14 13:01:00,
2013-02-14 05:11:00,38.5,34.7,30.11,North,0,0.0,0.0,86,0.00,,,0.00,WUHU21623XXSP,2013-02-14 13:11:00,
2013-02-14 05:21:00,38.5,34.4,30.12,North,0,0.0,0.0,85,0.00,,,0.00,WUHU21623XXSP,2013-02-14 13:21:00,
2013-02-14 05:31:00,37.9,33.8,30.12,North,0,0.0,0.0,85,0.00,,,0.00,WUHU21623XXSP,2013-02-14 13:31:00,
2013-02-14 05:41:00,37.4,33.3,30.12,North,0,0.0,0.0,85,0.00,,,0.00,WUHU21623XXSP,2013-02-14 13:41:00,
2013-02-14 05:51:00,37.6,33.5,30.12,North,0,0.0,0.0,85,0.00,,,0.00,WUHU21623XXSP,2013-02-14 13:51:00,
2013-02-14 06:01:00,37.8,34.0,30.12,North,0,0.0,0.0,86,0.00,,,0.00,WUHU21623XXSP,2013-02-14 14:01:00,
2013-02-14 06:11:00,38.3,34.5,30.12,North,0,0.0,0.0,86,0.00,,,0.00,WUHU21623XXSP,2013-02-14 14:11:00,
2013-02-14 06:21:00,38.8,34.9,30.12,North,0,0.0,0.0,86,0.00,,,0.00,WUHU21623XXSP,2013-02-14 14:21:00,
2013-02-14 06:31:00,39.0,34.9,30.13,North,0,0.0,0.0,85,0.00,,,0.00,WUHU21623XXSP,2013-02-14 14:31:00,
2013-02-14 06:41:00,38.5,34.4,30.13,North,0,0.0,0.0,85,0.00,,,0.00,WUHU21623XXSP,2013-02-14 14:41:00,
2013-02-14 06:51:00,39.0,34.9,30.13,North,0,0.0,0.0,85,0.00,,,0.00,WUHU21623XXSP,2013-02-14 14:51:00,
2013-02-14 07:04:00,38.8,34.7,30.13,North,0,0.0,0.0,85,0.00,,,0.00,WUHU21623XXSP,2013-02-14 15:04:00,
2013-02-14 07:09:00,38.5,34.3,30.12,North,0,0.0,0.0,85,0.00,,,0.00,WUHU21623XXSP,2013-02-14 15:09:00,
2013-02-14 07:14:00,38.5,34.3,30.12,North,0,0.0,0.0,85,0.00,,,0.00,WUHU21623XXSP,2013-02-14 15:14:00,
2013-02-14 07:19:00,38.7,34.5,30.13,North,0,0.0,0.0,85,0.00,,,0.00,WUHU21623XXSP,2013-02-14 15:19:00,
2013-02-14 07:24:00,38.8,34.7,30.13,North,0,0.0,0.0,85,0.00,,,0.00,WUHU21623XXSP,2013-02-14 15:24:00,
2013-02-14 07:29:00,38.8,34.7,30.13,North,0,0.0,0.0,85,0.00,,,0.00,WUHU21623XXSP,2013-02-14 15:29:00,
2013-02-14 07:34:00,39.0,34.9,30.12,North,0,0.0,0.0,85,0.00,,,0.00,WUHU21623XXSP,2013-02-14 15:34:00,
2013-02-14 07:39:00,39.0,34.9,30.13,North,0,0.0,0.0,85,0.00,,,0.00,WUHU21623XXSP,2013-02-14 15:39:00,
2013-02-14 07:44:00,39.0,34.6,30.13,North,0,0.0,0.0,84,0.00,,,0.00,WUHU21623XXSP,2013-02-14 15:44:00,
2013-02-14 07:49:00,39.0,34.6,30.13,North,0,0.0,0.0,84,0.00,,,0.00,WUHU21623XXSP,2013-02-14 15:49:00,
2013-02-14 07:54:00,39.4,34.9,30.13,North,0,0.0,0.0,84,0.00,,,0.00,WUHU21623XXSP,2013-02-14 15:54:00,
2013-02-14 07:59:00,39.6,35.1,30.13,North,0,0.0,0.0,84,0.00,,,0.00,WUHU21623XXSP,2013-02-14 15:59:00,
2013-02-14 08:04:00,39.7,35.3,30.13,North,0,0.0,0.0,84,0.00,,,0.00,WUHU21623XXSP,2013-02-14 16:04:00,
2013-02-14 08:09:00,39.9,35.4,30.13,North,0,0.0,0.0,84,0.00,,,0.00,WUHU21623XXSP,2013-02-14 16:09:00,
2013-02-14 08:14:00,40.5,35.9,30.13,North,0,0.0,0.0,84,0.00,,,0.00,WUHU21623XXSP,2013-02-14 16:14:00,
2013-02-14 08:19:00,40.6,36.1,30.13,North,0,0.0,0.0,84,0.00,,,0.00,WUHU21623XXSP,2013-02-14 16:19:00,
2013-02-14 08:24:00,41.2,36.6,30.13,North,0,0.0,0.0,84,0.00,,,0.00,WUHU21623XXSP,2013-02-14 16:24:00,
2013-02-14 08:29:00,41.4,36.5,30.13,North,0,0.0,0.0,83,0.00,,,0.00,WUHU21623XXSP,2013-02-14 16:29:00,
2013-02-14 08:34:00,41.7,37.2,30.13,North,0,0.0,0.0,84,0.00,,,0.00,WUHU21623XXSP,2013-02-14 16:34:00,
2013-02-14 08:39:00,42.1,37.5,30.13,North,0,0.0,0.0,84,0.00,,,0.00,WUHU21623XXSP,2013-02-14 16:39:00,
2013-02-14 08:44:00,42.6,37.8,30.13,North,0,0.0,0.0,83,0.00,,,0.00,WUHU21623XXSP,2013-02-14 16:44:00,
2013-02-14 08:49:00,43.0,38.1,30.13,North,0,0.0,0.0,83,0.00,,,0.00,WUHU21623XXSP,2013-02-14 16:49:00,
2013-02-14 08:54:00,43.2,38.3,30.13,North,0,0.0,0.0,83,0.00,,,0.00,WUHU21623XXSP,2013-02-14 16:54:00,
2013-02-14 08:59:00,43.3,38.5,30.13,North,0,0.0,0.0,83,0.00,,,0.00,WUHU21623XXSP,2013-02-14 16:59:00,
2013-02-14 09:04:00,43.5,38.7,30.13,North,0,0.0,0.0,83,0.00,,,0.00,WUHU21623XXSP,2013-02-14 17:04:00,
2013-02-14 09:09:00,43.9,39.0,30.13,North,0,0.0,0.0,83,0.00,,,0.00,WUHU21623XXSP,2013-02-14 17:09:00,
2013-02-14 09:14:00,44.2,39.1,30.13,North,0,0.0,0.0,82,0.00,,,0.00,WUHU21623XXSP,2013-02-14 17:14:00,
2013-02-14 09:19:00,44.6,39.5,30.13,North,0,0.0,0.0,82,0.00,,,0.00,WUHU21623XXSP,2013-02-14 17:19:00,
2013-02-14 09:24:00,45.1,40.0,30.13,North,0,0.0,0.0,82,0.00,,,0.00,WUHU21623XXSP,2013-02-14 17:24:00,
2013-02-14 09:29:00,45.7,40.5,30.13,North,0,0.0,0.0,82,0.00,,,0.00,WUHU21623XXSP,2013-02-14 17:29:00,
2013-02-14 09:34:00,46.2,40.8,30.13,North,0,0.0,0.0,81,0.00,,,0.00,WUHU21623XXSP,2013-02-14 17:34:00,
2013-02-14 09:39:00,46.8,41.3,30.14,North,0,0.0,0.0,81,0.00,,,0.00,WUHU21623XXSP,2013-02-14 17:39:00,
2013-02-14 09:44:00,47.1,41.3,30.14,North,0,0.0,0.0,80,0.00,,,0.00,WUHU21623XXSP,2013-02-14 17:44:00,
2013-02-14 09:49:00,48.0,41.8,30.14,North,0,0.0,0.0,79,0.00,,,0.00,WUHU21623XXSP,2013-02-14 17:49:00,
2013-02-14 09:54:00,48.7,42.1,30.14,North,0,0.0,0.0,78,0.00,,,0.00,WUHU21623XXSP,2013-02-14 17:54:00,
2013-02-14 09:59:00,49.1,42.5,30.14,North,0,0.0,0.0,78,0.00,,,0.00,WUHU21623XXSP,2013-02-14 17:59:00,
2013-02-14 10:04:00,49.8,42.5,30.14,North,0,0.0,0.0,76,0.00,,,0.00,WUHU21623XXSP,2013-02-14 18:04:00,
2013-02-14 10:09:00,50.5,42.9,30.14,North,0,0.0,0.0,75,0.00,,,0.00,WUHU21623XXSP,2013-02-14 18:09:00,
2013-02-14 10:14:00,51.1,43.4,30.14,North,0,0.0,0.0,75,0.00,,,0.00,WUHU21623XXSP,2013-02-14 18:14:00,
2013-02-14 10:19:00,52.0,44.0,30.14,North,0,0.0,0.0,74,0.00,,,0.00,WUHU21623XXSP,2013-02-14 18:19:00,
2013-02-14 10:24:00,52.5,44.1,30.14,North,0,0.0,0.0,73,0.00,,,0.00,WUHU21623XXSP,2013-02-14 18:24:00,
2013-02-14 10:29:00,53.2,44.8,30.14,North,0,0.0,0.0,73,0.00,,,0.00,WUHU21623XXSP,2013-02-14 18:29:00,
2013-02-14 10:34:00,53.8,44.9,30.13,North,0,0.0,0.0,72,0.00,,,0.00,WUHU21623XXSP,2013-02-14 18:34:00,
2013-02-14 10:39:00,54.5,45.3,30.13,North,0,0.0,0.0,71,0.00,,,0.00,WUHU21623XXSP,2013-02-14 18:39:00,
2013-02-14 10:44:00,55.2,45.7,30.13,North,0,0.0,0.0,70,0.00,,,0.00,WUHU21623XXSP,2013-02-14 18:44:00,
2013-02-14 10:49:00,55.9,45.5,30.13,North,0,0.0,0.0,68,0.00,,,0.00,WUHU21623XXSP,2013-02-14 18:49:00,
2013-02-14 10:54:00,56.5,46.0,30.13,North,0,0.0,0.0,68,0.00,,,0.00,WUHU21623XXSP,2013-02-14 18:54:00,
2013-02-14 10:59:00,57.0,46.1,30.13,North,0,0.0,0.0,67,0.00,,,0.00,WUHU21623XXSP,2013-02-14 18:59:00,
2013-02-14 11:04:00,57.4,46.5,30.12,North,0,0.0,0.0,67,0.00,,,0.00,WUHU21623XXSP,2013-02-14 19:04:00,
2013-02-14 11:09:00,57.7,46.8,30.12,North,0,0.0,0.0,67,0.00,,,0.00,WUHU21623XXSP,2013-02-14 19:09:00,
2013-02-14 11:14:00,58.1,46.8,30.12,North,0,0.0,0.0,66,0.00,,,0.00,WUHU21623XXSP,2013-02-14 19:14:00,
2013-02-14 11:19:00,58.8,46.6,30.11,North,0,0.0,0.0,64,0.00,,,0.00,WUHU21623XXSP,2013-02-14 19:19:00,
2013-02-14 11:24:00,59.7,47.1,30.11,North,0,0.0,0.0,63,0.00,,,0.00,WUHU21623XXSP,2013-02-14 19:24:00,
2013-02-14 11:29:00,60.4,47.4,30.11,North,0,0.0,0.0,62,0.00,,,0.00,WUHU21623XXSP,2013-02-14 19:29:00,
2013-02-14 11:34:00,61.2,46.8,30.11,North,0,0.0,0.0,59,0.00,,,0.00,WUHU21623XXSP,2013-02-14 19:34:00,
2013-02-14 11:39:00,61.7,47.3,30.11,North,0,0.0,0.0,59,0.00,,,0.00,WUHU21623XXSP,2013-02-14 19:39:00,
2013-02-14 11:44:00,62.6,47.1,30.11,North,0,0.0,0.0,57,0.00,,,0.00,WUHU21623XXSP,2013-02-14 19:44:00,
2013-02-14 11:49:00,63.5,47.4,30.11,North,0,0.0,0.0,56,0.00,,,0.00,WUHU21623XXSP,2013-02-14 19:49:00,
2013-02-14 11:54:00,64.2,47.6,30.11,North,0,0.0,0.0,55,0.00,,,0.00,WUHU21623XXSP,2013-02-14 19:54:00,
2013-02-14 11:59:00,64.8,48.1,30.11,North,0,0.0,0.0,55,0.00,,,0.00,WUHU21623XXSP,2013-02-14 19:59:00,
2013-02-14 12:04:00,65.3,48.2,30.11,North,0,0.0,0.0,54,0.00,,,0.00,WUHU21623XXSP,2013-02-14 20:04:00,
2013-02-14 12:09:00,65.8,47.7,30.11,North,0,0.0,0.0,52,0.00,,,0.00,WUHU21623XXSP,2013-02-14 20:09:00,
2013-02-14 12:14:00,66.0,47.4,30.11,North,0,0.0,0.0,51,0.00,,,0.00,WUHU21623XXSP,2013-02-14 20:14:00,
2013-02-14 12:19:00,66.6,47.4,30.10,North,0,0.0,0.0,50,0.00,,,0.00,WUHU21623XXSP,2013-02-14 20:19:00,
2013-02-14 12:24:00,66.7,47.0,30.10,North,0,0.0,0.0,49,0.00,,,0.00,WUHU21623XXSP,2013-02-14 20:24:00,
2013-02-14 12:29:00,66.7,47.0,30.10,North,0,0.0,0.0,49,0.00,,,0.00,WUHU21623XXSP,2013-02-14 20:29:00,
2013-02-14 12:34:00,66.9,47.2,30.10,North,0,0.0,0.0,49,0.00,,,0.00,WUHU21623XXSP,2013-02-14 20:34:00,
2013-02-14 12:39:00,67.3,47.5,30.10,North,0,0.0,0.0,49,0.00,,,0.00,WUHU21623XXSP,2013-02-14 20:39:00,
2013-02-14 12:44:00,67.5,47.7,30.09,North,0,0.0,0.0,49,0.00,,,0.00,WUHU21623XXSP,2013-02-14 20:44:00,
2013-02-14 12:49:00,67.6,47.8,30.09,North,0,0.0,0.0,49,0.00,,,0.00,WUHU21623XXSP,2013-02-14 20:49:00,
2013-02-14 12:54:00,67.6,47.8,30.09,North,0,0.0,0.0,49,0.00,,,0.00,WUHU21623XXSP,2013-02-14 20:54:00,
2013-02-14 12:59:00,67.6,47.8,30.08,North,0,0.0,0.0,49,0.00,,,0.00,WUHU21623XXSP,2013-02-14 20:59:00,
2013-02-14 13:04:00,67.6,48.4,30.08,North,0,0.0,0.0,50,0.00,,,0.00,WUHU21623XXSP,2013-02-14 21:04:00,
2013-02-14 13:09:00,67.8,48.0,30.08,North,0,0.0,0.0,49,0.00,,,0.00,WUHU21623XXSP,2013-02-14 21:09:00,
2013-02-14 13:14:00,67.8,48.0,30.08,North,0,0.0,0.0,49,0.00,,,0.00,WUHU21623XXSP,2013-02-14 21:14:00,
2013-02-14 13:19:00,68.0,48.1,30.08,North,0,0.0,0.0,49,0.00,,,0.00,WUHU21623XXSP,2013-02-14 21:19:00,
2013-02-14 13:24:00,68.2,48.3,30.08,North,0,0.0,0.0,49,0.00,,,0.00,WUHU21623XXSP,2013-02-14 21:24:00,
2013-02-14 13:29:00,68.2,48.3,30.08,North,0,0.0,0.0,49,0.00,,,0.00,WUHU21623XXSP,2013-02-14 21:29:00,
2013-02-14 13:34:00,68.4,47.9,30.08,North,0,0.0,0.0,48,0.00,,,0.00,WUHU21623XXSP,2013-02-14 21:34:00,
2013-02-14 13:39:00,68.5,48.0,30.08,North,0,0.0,0.0,48,0.00,,,0.00,WUHU21623XXSP,2013-02-14 21:39:00,
2013-02-14 13:44:00,68.5,47.4,30.08,North,0,0.0,0.0,47,0.00,,,0.00,WUHU21623XXSP,2013-02-14 21:44:00,
2013-02-14 13:49:00,68.7,47.6,30.08,North,0,0.0,0.0,47,0.00,,,0.00,WUHU21623XXSP,2013-02-14 21:49:00,
2013-02-14 13:54:00,68.7,47.0,30.08,North,0,0.0,0.0,46,0.00,,,0.00,WUHU21623XXSP,2013-02-14 21:54:00,
2013-02-14 13:59:00,69.1,47.3,30.08,North,0,0.0,0.0,46,0.00,,,0.00,WUHU21623XXSP,2013-02-14 21:59:00,
2013-02-14 14:04:00,69.1,47.3,30.08,North,0,0.0,0.0,46,0.00,,,0.00,WUHU21623XXSP,2013-02-14 22:04:00,
2013-02-14 14:08:00,69.4,47.7,30.08,North,0,0.0,0.0,46,0.00,,,0.00,WUHU21623XXSP,2013-02-14 22:08:00,
2013-02-14 14:13:00,69.4,47.7,30.08,North,0,0.0,0.0,46,0.00,,,0.00,WUHU21623XXSP,2013-02-14 22:13:00,
2013-02-14 14:18:00,69.6,48.4,30.08,North,0,0.0,0.0,47,0.00,,,0.00,WUHU21623XXSP,2013-02-14 22:18:00,
2013-02-14 14:24:00,69.6,48.4,30.08,North,0,0.0,0.0,47,0.00,,,0.00,WUHU21623XXSP,2013-02-14 22:24:00,
2013-02-14 14:29:00,69.6,48.4,30.08,North,0,0.0,0.0,47,0.00,,,0.00,WUHU21623XXSP,2013-02-14 22:29:00,
2013-02-14 14:34:00,69.6,48.4,30.08,North,0,0.0,0.0,47,0.00,,,0.00,WUHU21623XXSP,2013-02-14 22:34:00,
2013-02-14 14:38:00,69.4,48.3,30.08,North,0,0.0,0.0,47,0.00,,,0.00,WUHU21623XXSP,2013-02-14 22:38:00,
2013-02-14 14:43:00,69.4,48.3,30.08,North,0,0.0,0.0,47,0.00,,,0.00,WUHU21623XXSP,2013-02-14 22:43:00,
2013-02-14 14:48:00,69.1,47.9,30.08,North,0,0.0,0.0,47,0.00,,,0.00,WUHU21623XXSP,2013-02-14 22:48:00,
2013-02-14 14:53:00,68.9,47.8,30.08,North,0,0.0,0.0,47,0.00,,,0.00,WUHU21623XXSP,2013-02-14 22:53:00,
2013-02-14 14:58:00,68.9,47.8,30.08,North,0,0.0,0.0,47,0.00,,,0.00,WUHU21623XXSP,2013-02-14 22:58:00,
2013-02-14 15:03:00,68.7,47.6,30.08,North,0,0.0,0.0,47,0.00,,,0.00,WUHU21623XXSP,2013-02-14 23:03:00,
2013-02-14 15:08:00,68.5,47.4,30.08,North,0,0.0,0.0,47,0.00,,,0.00,WUHU21623XXSP,2013-02-14 23:08:00,
2013-02-14 15:13:00,68.2,47.7,30.08,North,0,0.0,0.0,48,0.00,,,0.00,WUHU21623XXSP,2013-02-14 23:13:00,
2013-02-14 15:18:00,68.2,47.7,30.08,North,0,0.0,0.0,48,0.00,,,0.00,WUHU21623XXSP,2013-02-14 23:18:00,
2013-02-14 15:23:00,68.2,48.3,30.08,North,0,0.0,0.0,49,0.00,,,0.00,WUHU21623XXSP,2013-02-14 23:23:00,
2013-02-14 15:29:00,67.8,47.4,30.08,North,0,0.0,0.0,48,0.00,,,0.00,WUHU21623XXSP,2013-02-14 23:29:00,
2013-02-14 15:33:00,67.8,48.0,30.09,North,0,0.0,0.0,49,0.00,,,0.00,WUHU21623XXSP,2013-02-14 23:33:00,
2013-02-14 15:38:00,67.8,48.0,30.09,North,0,0.0,0.0,49,0.00,,,0.00,WUHU21623XXSP,2013-02-14 23:38:00,
2013-02-14 15:43:00,67.8,48.0,30.09,North,0,0.0,0.0,49,0.00,,,0.00,WUHU21623XXSP,2013-02-14 23:43:00,
2013-02-14 15:48:00,67.8,48.0,30.09,North,0,0.0,0.0,49,0.00,,,0.00,WUHU21623XXSP,2013-02-14 23:48:00,
2013-02-14 15:53:00,67.8,48.0,30.09,North,0,0.0,0.0,49,0.00,,,0.00,WUHU21623XXSP,2013-02-14 23:53:00,
2013-02-14 15:58:00,67.8,48.0,30.09,North,0,0.0,0.0,49,0.00,,,0.00,WUHU21623XXSP,2013-02-14 23:58:00,
2013-02-14 16:03:00,67.8,48.6,30.08,North,0,0.0,0.0,50,0.00,,,0.00,WUHU21623XXSP,2013-02-15 00:03:00,
2013-02-14 16:08:00,67.8,48.6,30.08,North,0,0.0,0.0,50,0.00,,,0.00,WUHU21623XXSP,2013-02-15 00:08:00,
2013-02-14 16:13:00,67.8,48.6,30.08,North,0,0.0,0.0,50,0.00,,,0.00,WUHU21623XXSP,2013-02-15 00:13:00,
2013-02-14 16:18:00,67.6,48.7,30.08,North,0,0.0,0.0,51,0.00,,,0.00,WUHU21623XXSP,2013-02-15 00:18:00,
2013-02-14 16:23:00,67.3,48.6,30.08,North,0,0.0,0.0,51,0.00,,,0.00,WUHU21623XXSP,2013-02-15 00:23:00,
2013-02-14 16:28:00,66.9,48.7,30.08,North,0,0.0,0.0,52,0.00,,,0.00,WUHU21623XXSP,2013-02-15 00:28:00,
2013-02-14 16:34:00,66.4,48.3,30.08,North,0,0.0,0.0,52,0.00,,,0.00,WUHU21623XXSP,2013-02-15 00:34:00,
2013-02-14 16:38:00,65.5,47.9,30.08,North,0,0.0,0.0,53,0.00,,,0.00,WUHU21623XXSP,2013-02-15 00:38:00,
2013-02-14 16:44:00,64.6,47.4,30.08,North,0,0.0,0.0,54,0.00,,,0.00,WUHU21623XXSP,2013-02-15 00:44:00,
2013-02-14 16:49:00,63.5,46.9,30.08,North,0,0.0,0.0,55,0.00,,,0.00,WUHU21623XXSP,2013-02-15 00:49:00,
2013-02-14 16:54:00,62.6,46.1,30.08,North,0,0.0,0.0,55,0.00,,,0.00,WUHU21623XXSP,2013-02-15 00:54:00,
2013-02-14 16:59:00,61.7,45.8,30.08,North,0,0.0,0.0,56,0.00,,,0.00,WUHU21623XXSP,2013-02-15 00:59:00,
2013-02-14 17:04:00,61.0,45.6,30.08,North,0,0.0,0.0,57,0.00,,,0.00,WUHU21623XXSP,2013-02-15 01:04:00,
2013-02-14 17:09:00,60.1,45.2,30.08,North,0,0.0,0.0,58,0.00,,,0.00,WUHU21623XXSP,2013-02-15 01:09:00,
2013-02-14 17:14:00,59.5,45.2,30.08,North,0,0.0,0.0,59,0.00,,,0.00,WUHU21623XXSP,2013-02-15 01:14:00,
2013-02-14 17:19:00,58.8,44.5,30.08,North,0,0.0,0.0,59,0.00,,,0.00,WUHU21623XXSP,2013-02-15 01:19:00,
2013-02-14 17:24:00,58.3,44.5,30.08,North,0,0.0,0.0,60,0.00,,,0.00,WUHU21623XXSP,2013-02-15 01:24:00,
2013-02-14 17:29:00,57.7,44.4,30.08,North,0,0.0,0.0,61,0.00,,,0.00,WUHU21623XXSP,2013-02-15 01:29:00,
2013-02-14 17:34:00,57.0,43.7,30.08,North,0,0.0,0.0,61,0.00,,,0.00,WUHU21623XXSP,2013-02-15 01:34:00,
2013-02-14 17:39:00,56.5,43.6,30.09,North,0,0.0,0.0,62,0.00,,,0.00,WUHU21623XXSP,2013-02-15 01:39:00,
2013-02-14 17:44:00,56.1,43.3,30.09,North,0,0.0,0.0,62,0.00,,,0.00,WUHU21623XXSP,2013-02-15 01:44:00,
2013-02-14 17:49:00,55.6,43.1,30.09,North,0,0.0,0.0,63,0.00,,,0.00,WUHU21623XXSP,2013-02-15 01:49:00,
2013-02-14 17:54:00,55.2,43.2,30.08,North,0,0.0,0.0,64,0.00,,,0.00,WUHU21623XXSP,2013-02-15 01:54:00,
2013-02-14 17:59:00,54.7,42.7,30.09,North,0,0.0,0.0,64,0.00,,,0.00,WUHU21623XXSP,2013-02-15 01:59:00,
2013-02-14 18:04:00,54.3,42.8,30.09,North,0,0.0,0.0,65,0.00,,,0.00,WUHU21623XXSP,2013-02-15 02:04:00,
2013-02-14 18:09:00,53.8,41.8,30.10,North,0,0.0,0.0,64,0.00,,,0.00,WUHU21623XXSP,2013-02-15 02:09:00,
2013-02-14 18:14:00,53.4,41.9,30.10,North,0,0.0,0.0,65,0.00,,,0.00,WUHU21623XXSP,2013-02-15 02:14:00,
2013-02-14 18:19:00,52.9,41.8,30.09,North,0,0.0,0.0,66,0.00,,,0.00,WUHU21623XXSP,2013-02-15 02:19:00,
2013-02-14 18:24:00,52.5,41.5,30.09,North,0,0.0,0.0,66,0.00,,,0.00,WUHU21623XXSP,2013-02-15 02:24:00,
2013-02-14 18:29:00,52.3,41.7,30.10,North,0,0.0,0.0,67,0.00,,,0.00,WUHU21623XXSP,2013-02-15 02:29:00,
2013-02-14 18:34:00,52.0,41.4,30.10,North,0,0.0,0.0,67,0.00,,,0.00,WUHU21623XXSP,2013-02-15 02:34:00,
2013-02-14 18:39:00,51.6,41.4,30.10,North,0,0.0,0.0,68,0.00,,,0.00,WUHU21623XXSP,2013-02-15 02:39:00,
2013-02-14 18:44:00,51.6,41.4,30.10,North,0,0.0,0.0,68,0.00,,,0.00,WUHU21623XXSP,2013-02-15 02:44:00,
2013-02-14 18:49:00,51.1,40.9,30.10,North,0,0.0,0.0,68,0.00,,,0.00,WUHU21623XXSP,2013-02-15 02:49:00,
2013-02-14 18:54:00,50.7,40.9,30.10,North,0,0.0,0.0,69,0.00,,,0.00,WUHU21623XXSP,2013-02-15 02:54:00,
2013-02-14 18:59:00,50.5,40.8,30.10,North,0,0.0,0.0,69,0.00,,,0.00,WUHU21623XXSP,2013-02-15 02:59:00,
2013-02-14 19:04:00,50.4,41.0,30.10,North,0,0.0,0.0,70,0.00,,,0.00,WUHU21623XXSP,2013-02-15 03:04:00,
2013-02-14 19:09:00,50.2,40.8,30.10,North,0,0.0,0.0,70,0.00,,,0.00,WUHU21623XXSP,2013-02-15 03:09:00,
2013-02-14 19:14:00,49.8,40.8,30.11,North,0,0.0,0.0,71,0.00,,,0.00,WUHU21623XXSP,2013-02-15 03:14:00,
2013-02-14 19:19:00,49.6,40.6,30.11,North,0,0.0,0.0,71,0.00,,,0.00,WUHU21623XXSP,2013-02-15 03:19:00,
2013-02-14 19:24:00,49.3,40.3,30.11,North,0,0.0,0.0,71,0.00,,,0.00,WUHU21623XXSP,2013-02-15 03:24:00,
2013-02-14 19:29:00,49.1,40.4,30.10,North,0,0.0,0.0,72,0.00,,,0.00,WUHU21623XXSP,2013-02-15 03:29:00,
2013-02-14 19:34:00,48.7,40.1,30.11,North,0,0.0,0.0,72,0.00,,,0.00,WUHU21623XXSP,2013-02-15 03:34:00,
2013-02-14 19:39:00,48.6,40.2,30.11,North,0,0.0,0.0,73,0.00,,,0.00,WUHU21623XXSP,2013-02-15 03:39:00,
2013-02-14 19:44:00,48.4,40.0,30.11,North,0,0.0,0.0,73,0.00,,,0.00,WUHU21623XXSP,2013-02-15 03:44:00,
2013-02-14 19:49:00,48.0,40.0,30.11,North,0,0.0,0.0,74,0.00,,,0.00,WUHU21623XXSP,2013-02-15 03:49:00,
2013-02-14 19:54:00,47.8,39.9,30.11,North,0,0.0,0.0,74,0.00,,,0.00,WUHU21623XXSP,2013-02-15 03:54:00,
2013-02-14 19:59:00,47.7,39.7,30.11,North,0,0.0,0.0,74,0.00,,,0.00,WUHU21623XXSP,2013-02-15 03:59:00,
2013-02-14 20:04:00,47.5,39.9,30.11,North,0,0.0,0.0,75,0.00,,,0.00,WUHU21623XXSP,2013-02-15 04:04:00,
2013-02-14 20:09:00,47.3,40.1,30.11,North,0,0.0,0.0,76,0.00,,,0.00,WUHU21623XXSP,2013-02-15 04:09:00,
2013-02-14 20:14:00,47.1,39.9,30.11,North,0,0.0,0.0,76,0.00,,,0.00,WUHU21623XXSP,2013-02-15 04:14:00,
2013-02-14 20:19:00,46.9,40.1,30.11,North,0,0.0,0.0,77,0.00,,,0.00,WUHU21623XXSP,2013-02-15 04:19:00,
2013-02-14 20:24:00,46.9,40.1,30.11,North,0,0.0,0.0,77,0.00,,,0.00,WUHU21623XXSP,2013-02-15 04:24:00,
2013-02-14 20:29:00,46.9,40.4,30.11,North,0,0.0,0.0,78,0.00,,,0.00,WUHU21623XXSP,2013-02-15 04:29:00,
2013-02-14 20:34:00,47.1,40.6,30.11,North,0,0.0,0.0,78,0.00,,,0.00,WUHU21623XXSP,2013-02-15 04:34:00,
2013-02-14 20:39:00,47.1,40.6,30.11,North,0,0.0,0.0,78,0.00,,,0.00,WUHU21623XXSP,2013-02-15 04:39:00,
2013-02-14 20:44:00,46.9,40.4,30.11,North,0,0.0,0.0,78,0.00,,,0.00,WUHU21623XXSP,2013-02-15 04:44:00,
2013-02-14 20:49:00,46.8,40.3,30.11,North,0,0.0,0.0,78,0.00,,,0.00,WUHU21623XXSP,2013-02-15 04:49:00,
2013-02-14 20:54:00,46.6,40.1,30.11,North,0,0.0,0.0,78,0.00,,,0.00,WUHU21623XXSP,2013-02-15 04:54:00,
2013-02-14 20:59:00,46.2,39.8,30.11,North,0,0.0,0.0,78,0.00,,,0.00,WUHU21623XXSP,2013-02-15 04:59:00,
2013-02-14 21:00:00,46.2,39.8,30.11,North,0,0.0,0.0,78,0.00,,,0.00,WUHU21623XXSP,2013-02-15 05:00:00,
2013-02-14 21:10:00,45.7,39.3,30.11,North,0,0.0,0.0,78,0.00,,,0.00,WUHU21623XXSP,2013-02-15 05:10:00,
2013-02-14 21:20:00,45.3,38.9,30.12,North,0,0.0,0.0,78,0.00,,,0.00,WUHU21623XXSP,2013-02-15 05:20:00,
2013-02-14 21:30:00,45.0,38.6,30.13,North,0,0.0,0.0,78,0.00,,,0.00,WUHU21623XXSP,2013-02-15 05:30:00,
2013-02-14 21:40:00,44.4,37.7,30.12,North,0,0.0,0.0,77,0.00,,,0.00,WUHU21623XXSP,2013-02-15 05:40:00,
2013-02-14 21:50:00,44.4,37.4,30.12,North,0,0.0,0.0,76,0.00,,,0.00,WUHU21623XXSP,2013-02-15 05:50:00,
2013-02-14 22:00:00,44.6,37.2,30.13,North,0,0.0,0.0,75,0.00,,,0.00,WUHU21623XXSP,2013-02-15 06:00:00,
2013-02-14 22:10:00,44.4,36.7,30.13,North,0,0.0,0.0,74,0.00,,,0.00,WUHU21623XXSP,2013-02-15 06:10:00,
2013-02-14 22:20:00,44.4,36.7,30.13,North,0,0.0,0.0,74,0.00,,,0.00,WUHU21623XXSP,2013-02-15 06:20:00,
2013-02-14 22:30:00,44.2,36.2,30.13,North,0,0.0,0.0,73,0.00,,,0.00,WUHU21623XXSP,2013-02-15 06:30:00,
2013-02-14 22:40:00,43.7,35.3,30.13,North,0,0.0,0.0,72,0.00,,,0.00,WUHU21623XXSP,2013-02-15 06:40:00,
2013-02-14 22:50:00,43.5,35.1,30.14,North,0,0.0,0.0,72,0.00,,,0.00,WUHU21623XXSP,2013-02-15 06:50:00,
2013-02-14 23:00:00,43.3,35.0,30.14,North,0,0.0,0.0,72,0.00,,,0.00,WUHU21623XXSP,2013-02-15 07:00:00,
2013-02-14 23:10:00,43.3,35.0,30.14,North,0,0.0,0.0,72,0.00,,,0.00,WUHU21623XXSP,2013-02-15 07:10:00,
2013-02-14 23:20:00,43.0,34.7,30.14,North,0,0.0,0.0,72,0.00,,,0.00,WUHU21623XXSP,2013-02-15 07:20:00,
2013-02-14 23:30:00,42.4,34.1,30.14,North,0,0.0,0.0,72,0.00,,,0.00,WUHU21623XXSP,2013-02-15 07:30:00,
2013-02-14 23:40:00,42.4,34.1,30.14,North,0,0.0,0.0,72,0.00,,,0.00,WUHU21623XXSP,2013-02-15 07:40:00,
2013-02-14 23:50:00,41.9,33.6,30.14,North,0,0.0,0.0,72,0.00,,,0.00,WUHU21623XXSP,2013-02-15 07:50:00,